www.pogodaiklimat.ru

Погода и климат >> Архив погоды >> Россия >> Магаданская область >> Среднекан


ПОГОДА в Среднекане

  • Прогноз погоды в Среднекане
  • Монитор погоды в Среднекане
  • Климат города

АРХИВ ПОГОДЫ в Среднекане

Время (UTC), дата Ветер
(напр.,м/с)
 
Видим.   Явления Облачность Т
(С)
Тd
(С)
f
(%)
Тe
(С)
Тes
(С)
Комфортность P
(гПа)
Po
(гПа)
Тmin
(С)
Tmax
(С)
R
(мм)
R24
(мм)
S
(см)
21 15.10 С 1 20 км слабый ливневой снег 10/10 1000 м
[Cb cap]
-6.3 -8.5 84 -9 -9 1027.6 993.8 -6.6 0.0 56
00 16.10 С 1 20 км слабый ливневой снег 10/10 1000 м
[Cb cap]
-5.4 -8.7 78 -8 -8 1028.4 994.7
03 16.10 СВ 2 20 км слабый ливневой снег 10/10 1000 м
[Cb cap]
-5.4 -9.2 75 -10 -10 1028.6 994.9
06 16.10 СЗ 1 20 км слабый ливневой снег 10/10 1000 м
[Cb cap]
-5.8 -9.5 75 -8 -8 1028.8 995.0
09 16.10 З 1 20 км слабый ливневой снег 10/10 1000 м
[Cb cap]
-6.5 -10.0 76 -9 -9 1029.0 995.2 -5.3 0.2
12 16.10 Ю 2 50 км {ливн. осадки} 10/10 1000 м
[Cb cap]
-8.1 -11.9 74 -12 -12 1029.1 995.0
15 16.10 В 2 50 км 10/5 1000 м
[Cb cap Ci fib]
-13.2 -14.8 88 -18 -18 1028.5 993.8
18 16.10 В 1 50 км 10/6 1000 м
[Sc Ci fib]
-16.5 -17.7 90 -19 -19 1027.6 992.6
21 16.10 В 1 50 км 10/0
[Ci fib]
-18.7 -20.3 87 -22 -22 1027.1 991.7 -19.1 0.0 54
00 17.10 Ю 1 50 км 5/0
[Ci fib]
-13.4 -15.6 83 -16 -15 1025.2 990.6
03 17.10 ЮЗ 1 50 км 4/0
[Ci fib]
-6.7 -13.5 58 -9 -7 1022.2 988.6
06 17.10 Ю 1 50 км ясно -8.2 -14.2 62 -10 -10 1020.8 987.0
09 17.10 В 2 50 км ясно -14.5 -17.0 81 -19 -19 1021.0 986.4 -6.3
12 17.10 ЮВ 1 50 км ясно -16.8 -18.9 84 -20 -20 1020.1 985.2
15 17.10 В 1 50 км ясно -19.3 -20.8 88 -22 -22 1019.2 984.0
18 17.10 ЮВ 1 50 км ясно -21.3 -23.3 84 -24 -24 1018.7 983.2
21 17.10 ЮВ 1 50 км 10/10 1000 м
[Sc]
-20.1 -22.3 83 -23 -23 1018.4 983.1 -21.7 53
00 18.10 ЮВ 1 20 км слабый ливневой снег 10/10 1000 м
[Cb cap]
-15.9 -18.9 78 -19 -19 1017.0 982.3
03 18.10 ЮВ 1 50 км {ливн. осадки} 4/3 1000 м
[Cu hum Ci fib]
-11.0 -15.8 68 -13 -12 1015.0 981.1
06 18.10 штиль 0 50 км {ливн. осадки} ясно -12.4 -17.0 68 -12 -12 1014.0 979.9
09 18.10 В 2 50 км 3/0
[Ci fib]
-18.6 -20.6 84 -24 -24 1015.3 980.4 -8.8
12 18.10 В 2 50 км 5/0
[Ci fib]
-20.3 -22.1 85 -26 -26 1015.9 980.7
15 18.10 В 3 50 км 5/0
[Ci fib]
-20.4 -22.7 82 -28 -28 1015.9 980.7
18 18.10 В 2 50 км 5/0
[Ci fib]
-21.9 -24.4 80 -28 -28 1016.3 980.8
21 18.10 В 2 50 км 10/10 1000 м
[Sc]
-21.9 -24.5 79 -28 -28 1017.0 981.6 -22.3 52
00 19.10 В 2 50 км 9/8 1000 м
[Sc Ac trans]
-16.7 -20.5 72 -22 -22 1016.0 981.3
03 19.10 В 2 50 км 8/3 1000 м
[Sc Ac trans]
-11.6 -17.6 61 -16 -16 1014.6 980.6
06 19.10 штиль 0 50 км 10/3 1000 м
[Sc Ac und]
-11.8 -16.2 70 -12 -12 1014.5 980.4
09 19.10 В 1 50 км 10/4 1000 м
[Sc Ac trans Ci fib]
-14.9 -17.2 83 -17 -17 1015.4 980.9 -11.2
12 19.10 В 1 50 км 10/4 1000 м
[Sc Ci fib]
-13.8 -15.8 85 -16 -16 1015.1 980.8
15 19.10 штиль 0 20 км слабый ливневой снег 10/10 1000 м
[Cb cap]
-13.9 -15.6 87 -14 -14 1015.2 980.8
18 19.10 СВ 1 20 км слабый ливневой снег 10/10 1000 м
[Cb cap]
-13.5 -14.8 90 -16 -16 1014.8 980.5
21 19.10 штиль 0 20 км слабый ливневой снег 10/10 1000 м
[Cb cap]
-13.2 -14.4 91 -13 -13 1015.4 981.1 -15.0 0.3 51
00 20.10 штиль 0 20 км слабый ливневой снег 10/10 1000 м
[Cb cap]
-10.3 -12.9 81 -11 -11 1015.4 981.5
03 20.10 Ю 1 20 км слабый ливневой снег 10/10 1000 м
[Cb cap]
-8.9 -11.9 79 -11 -11 1014.9 981.2
06 20.10 Ю 1 20 км слабый ливневой снег 10/6 1000 м
[Cb cap Ac lent Ci fib]
-9.1 -11.4 83 -11 -11 1015.7 981.9
09 20.10 штиль 0 20 км слабый ливневой снег 10/5 1000 м
[Cb cap Ci fib]
-10.4 -11.4 92 -11 -11 1017.5 983.5 -7.6 2
12 20.10 штиль 0 20 км слабый ливневой снег 10/10 1000 м
[Cb cap]
-12.8 -13.9 91 -13 -13 1019.1 984.8
15 20.10 штиль 0 20 км слабый ливневой снег 10/10 1000 м
[Cb cap]
-12.5 -13.8 90 -13 -13 1019.5 985.2
18 20.10 В 1 20 км слабый ливневой снег 10/10 1000 м
[Cb cap]
-11.9 -13.3 89 -14 -14 1020.3 986.0
21 20.10 В 1 20 км слабый ливневой снег 10/10 1000 м
[Cb cap]
-12.6 -13.9 90 -15 -15 1020.9 986.5 -13.3 0.9 54
00 21.10 В 1 20 км слабый ливневой снег 10/8 1000 м
[Cb cap Ac lent Ci fib]
-9.4 -12.3 79 -12 -12 1020.9 986.9
03 21.10 Ю 1 50 км {ливн. осадки} 10/3 1000 м
[Sc Ac lent Ci fib]
-6.8 -11.0 72 -9 -8 1019.9 986.3
06 21.10 ЮВ 1 50 км {ливн. осадки} 9/4 1000 м
[Sc Ci fib]
-9.4 -12.7 77 -12 -12 1020.0 986.1
09 21.10 В 2 20 км слабый ливневой снег 10/6 1000 м
[Cb cap Ci]
-12.4 -14.3 86 -17 -17 1020.4 986.1 -6.1 0.2
12 21.10 В 1 20 км слабый ливневой снег 10/5 1000 м
[Cb cap Ci fib]
-13.7 -14.8 91 -16 -16 1020.3 985.8
15 21.10 штиль 0 20 км слабый ливневой снег 10/8 1000 м
[Cb cap Ci fib]
-11.6 -12.9 90 -12 -12 1019.6 985.4
18 21.10 ЮВ 1 10 км слабый ливневой снег 10/10 1000 м
[Cb cap]
-11.6 -13.1 89 -14 -14 1019.3 985.1
21 21.10 В 1 20 км слабый ливневой снег 10/10 1000 м
[Cb cap]
-11.2 -12.8 88 -13 -13 1019.0 984.9 -13.8 0.3 54
00 22.10 ЮВ 1 20 км слабый ливневой снег 10/9 1000 м
[Cb cap Ci fib]
-8.9 -11.7 80 -11 -11 1018.4 984.6
03 22.10 Ю 1 50 км {ливн. осадки} 9/9 1000 м
[Cb cap Ci fib]
-7.0 -12.4 65 -9 -9 1017.5 984.0
06 22.10 ЮЗ 1 50 км {ливн. осадки} 8/8 1000 м
[Cb cap]
-8.0 -13.8 63 -10 -10 1017.5 983.8
09 22.10 В 1 50 км 4/3 1000 м
[Sc Ci fib]
-13.1 -15.9 79 -15 -15 1018.4 984.0 -6.5 0.0
12 22.10 В 1 50 км 3/1 1000 м
[Sc Ci fib]
-17.6 -19.3 87 -20 -20 1018.8 983.9
15 22.10 В 3 50 км 4/0
[Ci fib]
-19.3 -21.0 86 -27 -27 1018.8 983.6

 

Местоположение метеостанции Среднекан (Магаданская область, Россия): широта 62.45 долгота 152.30 высота над уровнем моря 260 м.

В архиве по умолчанию представлена погода в Среднекане за последнюю неделю. Архивные данные за месяц целиком и за предыдущие месяцы, начиная с января 2011 года, Вы можете получить, выбрав интересующий диапазон дат из раскрывающегося списка и нажав кнопку "Ввод!".


*Определитесь, кто Вы:
робот инопланетянин человек

Внимание! Время в таблицах - всемирное. Для получения местного времени необходимо прибавить поправку, которая в Среднекане равна 11 ч.

Смотрите также архив погоды в соседних городах и на ближайших метеорологических станциях:

Погода в Сеймчане (Магаданская область, Россия) (51 км)
Погода в Совхозе Эльген (Магаданская область, Россия) (95 км)
Погода в Усть-Бохапче (Магаданская область, Россия) (96 км)
Погода в Ягодной (Магаданская область, Россия) (139 км)
Погода в Талае (Магаданская область, Россия) (147 км)
Погода в Озере Джека Лондона (Магаданская область, Россия) (151 км)
Погода в Омсукчане (Магаданская область, Россия) (180 км)
Погода в Балыгычане (Магаданская область, Россия) (186 км)
Погода в Усть-Омчуге (Магаданская область, Россия) (205 км)
Погода в Сусумане (Магаданская область, Россия) (218 км)

Пояснения к столбцам:

Ветер - указаны скорость ветра в м/с - средняя за 10 мин, порывы в срок и между сроками (в фигурных скобках) и направление, откуда дует ветер: С - северный, СВ - северо-восточный, В - восточный, ЮВ - юго-восточный, Ю - южный, ЮЗ - юго-западный, З - западный, СЗ - северо-западный.
Видимость - горизонтальная дальность видимости в метрах или километрах. При видимости от 1 до 10 км при отсутствии осадков обычно наблюдается дымка, при ухудшении видимости до 1 км и менее - туман. В сухую погоду видимость может ухудшаться дымом, пылью или мглою.
Явления - указаны атмосферные явления, наблюдавшиеся в срок или в последний час перед сроком; фигурными скобками обозначены явления, наблюдавшиеся между сроками (за 1-3 часа до срока); квадратными скобками обозначены град или гололедные отложения с указанием их диаметра в мм.
Облачность - указаны через наклонную черту общая и нижняя облачность в баллах и высота нижней границы облаков в метрах; квадратными скобками обозначены формы облаков: Ci - перистые, Cs - перисто-слоистые, Cc - перисто-кучевые, Ac - высококучевые, As - высокослоистые, Sc - слоисто-кучевые, Ns - слоисто-дождевые, Cu - кучевые, Cb - кучево-дождевые. Подробнее классификацию облаков см. в Атласе облаков (PDF).
T - Температура воздуха - температура, измеренная на высоте 2 м над землей.
Td - Температура точки росы - температура, при понижении до которой содержащийся в воздухе водяной пар достигнет насыщения.
f - Относительная влажность воздуха - влажноcть воздуха, измеренная на высоте 2 м над землей.
Te - Эффективная температура - температура, которую ощущает одетый по сезону человек в тени. Характеристика душности погоды. При расчете учитывается влияние влажности воздуха и скорости ветра на теплоощущения человека.
Tes - Эффективная температура на солнце - температура, которую ощущает человек, с поправкой на солнечный нагрев. Характеристика знойности погоды. Зависит от высоты солнца над горизонтом, облачности и скорости ветра. Ночью, в пасмурную погоду, а также при ветре 12 м/с и более поправка равна нулю.
P - Атмосферное давление - приведенное к уровню моря атмосферное давление.
Po - Атмосферное давление - измеренное на уровне метеостанции атмосферное давление.
Tmin - Минимальная температура - минимум температуры воздуха на высоте 2 м над землей.
Tmax - Максимальная температура - максимум температуры воздуха на высоте 2 м над землей.
R - Количество осадков - Количество выпавших осадков за период времени, мм. При наведении курсора мыши на число - период времени, за который выпало указанное количество осадков.
R24 - Количество осадков - Количество выпавших осадков за 24 часа, мм.
S - Снежный покров - Высота снежного покрова, см. При наведении курсора мыши на число - состояние снежного покрова и степень покрытия местности в баллах.